Regional Weather Roundup
Issued by NWS Newport/Morehead, NC

Current Version | Previous Version | Graphics & Text | Print | Product List | Glossary On
Versions: 1 2 3 4 5 6 7 8 9 10 11 12 13 14 15 16 17 18 19 20 21 22 23 24 25 26 27 28 29 30 31 32 33 34 35 36 37 38 39 40 41 42 43 44 45 46 47 48 49 50
181 ASUS42 KMHX 091224 RWRMHX WEATHER ROUNDUP FOR EASTERN NORTH CAROLINA NATIONAL WEATHER SERVICE NEWPORT/MOREHEAD CITY NC 700 AM EST FRI DEC 09 2016 NOTE: "FAIR" INDICATES FEW OR NO CLOUDS BELOW 12,000 FEET WITH NO SIGNIFICANT WEATHER AND/OR OBSTRUCTIONS TO VISIBILITY NCZ015>017-031-032-045>047-102-103-091300- NORTH COAST CITY SKY/WX TMP DP RH WIND PRES REMARKS EDENTON CLEAR 33 23 66 CALM 30.32R ELIZABETH CITY CLEAR 28 20 71 W5 30.29R KITTY HAWK SUNNY 36 24 63 NW8 30.26R MANTEO CLEAR 36 21 54 N10G20 30.28R $$ NCZ045>047-081-094-103-104-091300- CENTRAL COAST CITY SKY/WX TMP DP RH WIND PRES REMARKS FRISCO CLEAR 40 23 50 N8 30.25R $$ NCZ095-097-098-100-101-091300- SOUTHERN COAST CITY SKY/WX TMP DP RH WIND PRES REMARKS BEAUFORT CLEAR 36 23 59 N10 30.30R CEDAR ISLAND NOT AVBL JACKSONVILLE CLEAR 35 18 49 N12 30.32R PINEY ISLAND SUNNY N/A N/A N/A NW17G24 30.29R WILMINGTON CLEAR 33 21 61 N6 30.34R $$ NCZ011>013-027>030-043-044-078>080-089-090>093-098-091300- COASTAL PLAIN CITY SKY/WX TMP DP RH WIND PRES REMARKS AHOSKIE CLEAR 28 19 71 CALM 30.33R CLINTON CLEAR 32 23 70 CALM 30.36R ELIZABETHTOWN CLEAR 32 20 61 CALM 30.35R GOLDSBORO CLEAR 32 16 52 NW5 30.32R GREENVILLE CLEAR 32 21 64 CALM 30.33R HAVELOCK CLEAR 37 20 50 N16 30.31R KENANSVILLE CLEAR 32 19 59 NW5 30.34R KINSTON CLEAR 32 19 59 CALM 30.34R NEW BERN CLEAR 34 19 54 NW8 30.32R RICHLANDS CLEAR 32 21 64 N3 30.33R ROCKY MOUNT CLEAR 30 18 60 NW5 30.33R WASHINGTON CLEAR 30 20 67 NW3 30.32R WHITEVILLE CLEAR 33 22 66 CALM 30.35R $$ AMZ130-135-150-152-154-156-158-170-250-252-270-ANZ085-086-088-633-658-670-091300- MARINE OBSERVATIONS STATION/POSITION TIME TEMP WIND PRES WAVE SWELL AIR SEA DIR/SP/G HT/PER HT/PER (UTC) (F) (DEG/KT/KT) (MB) (FT/S) (FT/S) CHESAPEAKE LIGHT NOT AVBL 64 E VA BEACH 1150 41 58 340/ 21/ 29 1022.9 8/ 7 2/12 DUCK 1200 37 53 330/ 14/ 16 1024.4 2 E DUCK NOT AVBL OREGON INLET 1200 320/ 14/ 20 1024.6 13E OREGON INLT NOT AVBL HATTERAS CG 1200 41 56 340/ 19/ 23 1024.2 DIAMOND BUOY 1150 45 75 360/ 19/ 25 1023.8 6/ 6 2/11 CAPE LOOKOUT 1200 38 340/ 20/ 25 1025.4 BEAUFORT LAB 1200 37 54 350/ 13/ 17 1025.1 30 SE NEW RVR IN 1208 44 69 10/ 19/ 25 1026.0 30 SE NEW RVR IN NOT AVBL 27 SE WRIGHTSVLE 1208 44 68 360/ 21/ 29 1025.8 5 SE WRIGHTSVLE 1208 39 61 10/ 17/ 39 1026.3 225 S CAPE HAT 1150 63 74 350/ 17/ 21 1021.0 8/ 7 3/12 41 SE CHARLESTON 1150 52 73 360/ 19/ 25 1025.4 5/ 6 $$

USA.gov is the U.S. government's official web portal to all federal, state and local government web resources and services.